[[{"header":{"parameterUnit":"m.s-1","parameterCategory":1,"la1":30.2991,"la2":30.254,"lo1":-89.0895,"lo2":-89.0444,"dy":0.0017,"dx":0.0017,"nx":28,"ny":28,"refTime":"2025-01-24T09:00:00:Z","depth":0,"parameterNumber":2,"parameterNumberName":"U-component_of_WINDS"},"data":[0,0,0,0,0,0,0,0,0,0,0,0,0,0,0,0,0,0,0,0,0,0,0,0,0,0,0,0,0,0,0,0,0,0,0,0,0,0,0,0,0,0,0,0,0,0,0,0,0,0,0,0,0,0,0,0,0,0,-0.2803,-0.2804,0,-0.2886,-0.2887,-0.2888,-0.2905,-0.2904,-0.2904,-0.2903,-0.299,-0.2992,-0.2995,0,0,0,0,0,0,0,0,0,0,0,0,0,-0.2661,-0.2663,-0.2803,-0.2804,-0.2805,-0.2886,-0.2887,-0.2888,-0.2905,-0.2904,-0.2903,-0.2903,-0.2989,-0.2992,-0.2996,0,0,0,0,0,0,0,0,0,0,0,0,0,-0.2731,-0.2664,-0.2803,-0.2823,-0.2826,-0.2886,-0.2887,-0.2889,-0.2905,-0.2904,-0.2903,-0.2902,-0.2988,-0.2992,-0.2996,-0.3042,0,0,-0.3009,-0.3011,0,0,0,0,0,0,0,0,-0.2727,-0.2736,-0.2819,-0.2822,-0.2825,-0.2884,-0.2869,-0.294,-0.2905,-0.2875,-0.2903,-0.2902,-0.2955,-0.2962,-0.298,-0.3046,-0.305,-0.301,-0.3012,-0.3014,-0.3015,0,0,0,0,0,0,0,-0.2722,-0.2733,-0.2836,-0.282,-0.2824,-0.2829,-0.2838,-0.2882,-0.292,-0.2878,-0.2879,-0.2889,-0.2957,-0.2976,-0.2982,-0.3051,-0.301,-0.3014,-0.3016,-0.3018,-0.316,-0.3161,0,0,0,0,0,0,-0.2714,-0.2729,-0.2833,-0.2838,-0.2773,-0.2832,-0.2842,-0.2866,-0.2919,-0.2926,-0.2889,-0.2889,-0.2969,-0.2977,-0.2985,-0.3043,-0.3014,-0.3018,-0.3021,-0.3159,-0.316,-0.3162,0,0,0,0,0,0,-0.271,-0.2723,-0.283,-0.2784,-0.2798,-0.2836,-0.2862,-0.2868,-0.2887,-0.2928,-0.2935,-0.2902,-0.2968,-0.2979,-0.3028,-0.3046,-0.302,-0.3024,-0.3158,-0.3159,-0.3161,-0.3159,0,0,0,0,0,0,-0.2706,-0.2721,-0.2739,-0.2784,-0.28,-0.2871,-0.2864,-0.2871,-0.2895,-0.2895,-0.2942,-0.2948,-0.2969,-0.3021,-0.3032,-0.3052,-0.3028,-0.3156,-0.3158,-0.316,-0.3157,-0.316,-0.3163,0,0,0,0,0,-0.2701,-0.2735,-0.274,-0.2752,-0.2823,-0.2872,-0.2881,-0.2903,-0.2896,-0.2914,-0.294,-0.2947,-0.3043,-0.3026,-0.3039,-0.306,-0.3155,-0.3158,-0.316,-0.3156,-0.316,-0.3163,0,0,0,0,0,0,-0.2691,-0.2741,-0.2747,-0.2797,-0.283,-0.2874,-0.2898,-0.2906,-0.2942,-0.2941,-0.2967,-0.2978,-0.3025,-0.3047,-0.3028,-0.3108,-0.3099,-0.3104,-0.3091,-0.3095,-0.3097,-0.3091,-0.3031,0,0,0,0,0,-0.2695,-0.273,-0.2772,-0.2812,-0.2828,-0.286,-0.2882,-0.2896,-0.2932,-0.2946,-0.2976,-0.301,-0.3049,-0.3073,-0.311,-0.3161,-0.3172,-0.3182,-0.3184,-0.3186,-0.3191,-0.322,-0.3225,-0.317,-0.317,-0.317,0,0,-0.2703,-0.2734,-0.2755,-0.281,-0.2838,-0.2874,-0.2872,-0.291,-0.2937,-0.2952,-0.3,-0.3023,-0.3063,-0.3113,-0.3137,-0.3134,-0.3208,-0.319,-0.3191,-0.3194,-0.3223,-0.3228,-0.3232,-0.3172,-0.3172,-0.3171,0,0,-0.2735,-0.2762,-0.2799,-0.2826,-0.2867,-0.2889,-0.2897,-0.2941,-0.2957,-0.3005,-0.3017,-0.305,-0.3115,-0.3144,-0.3167,-0.3211,-0.3218,-0.3222,-0.3236,-0.3264,-0.3268,-0.3272,-0.3288,-0.3294,-0.3226,-0.3226,-0.3226,0,-0.274,-0.2794,-0.2817,-0.2854,-0.2879,-0.2894,-0.2931,-0.2957,-0.3008,-0.3025,-0.302,-0.3102,-0.3131,-0.3188,-0.3198,-0.3216,-0.3228,-0.3217,-0.3266,-0.327,-0.3274,-0.329,-0.3295,-0.3227,-0.3227,-0.3226,-0.3226,0,-0.2798,-0.2835,-0.286,-0.2909,-0.2936,-0.2973,-0.3002,-0.3027,-0.3039,-0.3061,-0.3111,-0.3145,-0.319,-0.3204,-0.3217,-0.3264,-0.326,-0.326,-0.3252,-0.3279,-0.3294,-0.33,-0.3227,-0.3227,-0.3227,-0.3227,0,0,-0.2826,-0.2887,-0.2896,-0.2919,-0.2965,-0.2995,-0.3034,-0.3077,-0.3098,-0.3133,-0.3167,-0.3221,-0.3222,-0.3248,-0.3264,-0.3288,-0.3321,-0.3286,-0.3287,-0.3291,-0.3376,-0.3375,-0.3382,-0.3327,-0.3328,-0.3329,-0.3372,0,-0.2865,-0.2933,-0.2955,-0.3012,-0.3047,-0.3062,-0.3096,-0.3129,-0.315,-0.3184,-0.3208,-0.3247,-0.3244,-0.326,-0.3285,-0.3312,-0.3339,-0.3309,-0.3358,-0.336,-0.3347,-0.339,-0.3389,-0.3428,-0.3378,-0.3379,-0.338,0,-0.2918,-0.2954,-0.3015,-0.3058,-0.3073,-0.3103,-0.3145,-0.3176,-0.3214,-0.3228,-0.3258,-0.3272,-0.3313,-0.3302,-0.336,-0.3339,-0.3361,-0.3377,-0.3379,-0.3385,-0.3371,-0.3396,-0.3441,-0.3447,-0.339,-0.3389,-0.3388,0,-0.2933,-0.2996,-0.3041,-0.306,-0.3111,-0.3132,-0.3154,-0.3191,-0.3216,-0.3252,-0.3269,-0.331,-0.3333,-0.3365,-0.3389,-0.3379,-0.3445,-0.3436,-0.3458,-0.3458,-0.3472,-0.347,-0.3521,-0.3485,-0.3485,-0.3485,-0.3485,0,-0.2974,-0.301,-0.3048,-0.3076,-0.3118,-0.3143,-0.3183,-0.3207,-0.324,-0.3272,-0.3288,-0.3319,-0.3349,-0.3384,-0.3404,-0.3449,-0.3459,-0.3472,-0.3477,-0.3471,-0.3469,-0.3485,-0.3483,-0.3487,-0.3486,-0.3486,-0.3486,0,-0.2997,-0.3024,-0.3074,-0.3118,-0.313,-0.3159,-0.3197,-0.3225,-0.3247,-0.3289,-0.33,-0.3335,-0.3377,-0.3405,-0.3459,-0.3472,-0.3521,-0.3525,-0.3508,-0.3511,-0.3531,-0.3529,-0.3594,-0.3604,-0.3561,-0.3562,-0.3562,0,-0.3021,-0.3049,-0.3097,-0.312,-0.3142,-0.3179,-0.3204,-0.323,-0.3256,-0.3302,-0.3324,-0.3367,-0.3402,-0.3469,-0.3499,-0.3541,-0.3546,-0.3566,-0.3552,-0.3545,-0.3547,-0.3545,-0.3548,-0.3568,-0.3569,-0.3569,-0.3569,0,-0.3061,-0.3073,-0.3108,-0.3149,-0.3179,-0.3212,-0.3246,-0.3264,-0.3296,-0.3324,-0.3367,-0.3395,-0.3449,-0.3492,-0.3536,-0.356,-0.357,-0.3573,-0.3581,-0.3574,-0.3563,-0.357,-0.3514,-0.3571,-0.3571,-0.3571,-0.3571,-0.3571,-0.3085,-0.3112,-0.3149,-0.3189,-0.3216,-0.3247,-0.3276,-0.3302,-0.3338,-0.3384,-0.3397,-0.3442,-0.348,-0.354,-0.3565,-0.3601,-0.3599,-0.3609,-0.3612,-0.3614,-0.3614,-0.3558,-0.3609,-0.3609,-0.3609,-0.3609,-0.3609,0,-0.3126,-0.3151,-0.3187,-0.3233,-0.3265,-0.3271,-0.3309,-0.3335,-0.3373,-0.3408,-0.3442,-0.3492,-0.3533,-0.3568,-0.3611,-0.3633,-0.3639,-0.3643,-0.3642,-0.3647,-0.3614,-0.3603,-0.3638,-0.3638,-0.3638,-0.3638,-0.3638,-0.3638,-0.3151,-0.3196,-0.3212,-0.3271,-0.3296,-0.334,-0.3361,-0.339,-0.3417,-0.3472,-0.3506,-0.3528,-0.3563,-0.3608,-0.3647,-0.3656,-0.3671,-0.3675,-0.3685,-0.3653,-0.3649,-0.3646,-0.3636,-0.3678,-0.3678,-0.3715,-0.3716,-0.3716]},{"header":{"parameterUnit":"m.s-1","parameterCategory":1,"la1":30.2991,"la2":30.254,"lo1":-89.0895,"lo2":-89.0444,"dy":0.0017,"dx":0.0017,"nx":28,"ny":28,"refTime":"2025-01-24T09:00:00:Z","depth":0,"parameterNumber":3,"parameterNumberName":"V-component_of_WINDS"},"data":[0,0,0,0,0,0,0,0,0,0,0,0,0,0,0,0,0,0,0,0,0,0,0,0,0,0,0,0,0,0,0,0,0,0,0,0,0,0,0,0,0,0,0,0,0,0,0,0,0,0,0,0,0,0,0,0,0,0,-2.1194,-2.1195,0,-2.1276,-2.1277,-2.1278,-2.1288,-2.1288,-2.1287,-2.1286,-2.1371,-2.1373,-2.1376,0,0,0,0,0,0,0,0,0,0,0,0,0,-2.1048,-2.1051,-2.1194,-2.1195,-2.1196,-2.1276,-2.1277,-2.1278,-2.1289,-2.1288,-2.1287,-2.1286,-2.137,-2.1373,-2.1377,0,0,0,0,0,0,0,0,0,0,0,0,0,-2.1119,-2.1052,-2.1194,-2.1211,-2.1213,-2.1276,-2.1277,-2.1279,-2.1289,-2.1288,-2.1286,-2.1285,-2.1368,-2.1373,-2.1377,-2.1429,0,0,-2.1391,-2.1393,0,0,0,0,0,0,0,0,-2.1115,-2.1124,-2.1207,-2.121,-2.1213,-2.1271,-2.1257,-2.1329,-2.1289,-2.126,-2.1286,-2.1285,-2.1338,-2.1345,-2.1363,-2.1433,-2.1436,-2.1391,-2.1394,-2.1396,-2.1397,0,0,0,0,0,0,0,-2.111,-2.1121,-2.1227,-2.1209,-2.1212,-2.1215,-2.1224,-2.127,-2.1305,-2.1263,-2.1263,-2.1273,-2.134,-2.1359,-2.1365,-2.1437,-2.1391,-2.1395,-2.1398,-2.14,-2.1554,-2.1555,0,0,0,0,0,0,-2.1102,-2.1117,-2.1224,-2.1229,-2.116,-2.1219,-2.1228,-2.1253,-2.1304,-2.1311,-2.1274,-2.1273,-2.1352,-2.136,-2.1368,-2.1432,-2.1396,-2.14,-2.1403,-2.1553,-2.1554,-2.1556,0,0,0,0,0,0,-2.1099,-2.1111,-2.1221,-2.1173,-2.1187,-2.1222,-2.125,-2.1256,-2.1275,-2.1313,-2.1319,-2.1287,-2.1351,-2.1362,-2.1414,-2.1435,-2.1402,-2.1406,-2.1551,-2.1553,-2.1555,-2.156,0,0,0,0,0,0,-2.1095,-2.111,-2.113,-2.1174,-2.119,-2.1264,-2.1252,-2.1258,-2.1283,-2.1282,-2.1327,-2.1333,-2.1351,-2.1407,-2.1418,-2.1441,-2.141,-2.1549,-2.1552,-2.1555,-2.1558,-2.1562,-2.1566,0,0,0,0,0,-2.1089,-2.1128,-2.1131,-2.1143,-2.1215,-2.1265,-2.1275,-2.1294,-2.1284,-2.1304,-2.1329,-2.1332,-2.1431,-2.1412,-2.1425,-2.1449,-2.1548,-2.1551,-2.1554,-2.1557,-2.1561,-2.1565,0,0,0,0,0,0,-2.1085,-2.1134,-2.1137,-2.1191,-2.1224,-2.1267,-2.1293,-2.1299,-2.1335,-2.1333,-2.1356,-2.1366,-2.1417,-2.1439,-2.1416,-2.1502,-2.1489,-2.1495,-2.1486,-2.1491,-2.1495,-2.1488,-2.1413,0,0,0,0,0,-2.1091,-2.1127,-2.1168,-2.1211,-2.1228,-2.1258,-2.128,-2.1292,-2.1328,-2.1342,-2.137,-2.1404,-2.1443,-2.1469,-2.1506,-2.1562,-2.1572,-2.1585,-2.1589,-2.1591,-2.1596,-2.1627,-2.1634,-2.1566,-2.1566,-2.1566,0,0,-2.1102,-2.1133,-2.1155,-2.1212,-2.1238,-2.1276,-2.1269,-2.1309,-2.1338,-2.1348,-2.1398,-2.1421,-2.146,-2.1514,-2.1539,-2.1534,-2.1617,-2.1595,-2.1597,-2.1601,-2.1631,-2.1638,-2.1643,-2.1569,-2.1568,-2.1568,0,0,-2.1142,-2.1169,-2.1209,-2.1236,-2.1277,-2.1297,-2.1306,-2.1349,-2.1364,-2.1415,-2.1424,-2.1458,-2.1525,-2.1553,-2.1576,-2.1628,-2.1633,-2.164,-2.1659,-2.169,-2.1695,-2.17,-2.1718,-2.1725,-2.1645,-2.1645,-2.1645,0,-2.1151,-2.1208,-2.1228,-2.1269,-2.1293,-2.1305,-2.1345,-2.1371,-2.1422,-2.1439,-2.1432,-2.1517,-2.1544,-2.1605,-2.1618,-2.1636,-2.1648,-2.1635,-2.1692,-2.1697,-2.1702,-2.172,-2.1727,-2.1646,-2.1645,-2.1645,-2.1645,0,-2.1217,-2.1257,-2.1284,-2.1333,-2.1361,-2.1401,-2.1428,-2.1455,-2.1465,-2.1485,-2.1538,-2.1572,-2.1617,-2.1632,-2.1643,-2.1695,-2.169,-2.1688,-2.1675,-2.1709,-2.1726,-2.1734,-2.1646,-2.1646,-2.1646,-2.1646,0,0,-2.1256,-2.1317,-2.1326,-2.1349,-2.1396,-2.1427,-2.1468,-2.1512,-2.1534,-2.157,-2.1605,-2.1662,-2.166,-2.1686,-2.17,-2.1727,-2.1767,-2.1721,-2.1723,-2.1728,-2.1827,-2.1828,-2.1836,-2.177,-2.1772,-2.1773,-2.1824,0,-2.1301,-2.1374,-2.1394,-2.1456,-2.1493,-2.1505,-2.1541,-2.1574,-2.1595,-2.163,-2.1653,-2.1693,-2.1687,-2.1703,-2.173,-2.1756,-2.1787,-2.1753,-2.1803,-2.1805,-2.1792,-2.1845,-2.1846,-2.1893,-2.1831,-2.1832,-2.1833,0,-2.1363,-2.14,-2.1466,-2.1508,-2.1525,-2.1556,-2.1599,-2.1632,-2.167,-2.1684,-2.1714,-2.1725,-2.1769,-2.1755,-2.1816,-2.1792,-2.1815,-2.1831,-2.1833,-2.1838,-2.182,-2.1851,-2.1908,-2.1915,-2.1844,-2.1843,-2.1842,0,-2.1385,-2.1451,-2.1499,-2.1518,-2.1569,-2.1591,-2.1613,-2.165,-2.1676,-2.1714,-2.1731,-2.1773,-2.1796,-2.1829,-2.1852,-2.1839,-2.1912,-2.1899,-2.1924,-2.1924,-2.1938,-2.1937,-2.1999,-2.1953,-2.1953,-2.1953,-2.1953,0,-2.1433,-2.1472,-2.1509,-2.1538,-2.1584,-2.1607,-2.1651,-2.1674,-2.1707,-2.1741,-2.1755,-2.1787,-2.1816,-2.1852,-2.1871,-2.1919,-2.1929,-2.1942,-2.1946,-2.194,-2.1939,-2.1955,-2.1952,-2.1955,-2.1955,-2.1954,-2.1954,0,-2.1464,-2.149,-2.1543,-2.1587,-2.1599,-2.163,-2.1669,-2.1698,-2.172,-2.1764,-2.1775,-2.181,-2.1853,-2.188,-2.1935,-2.1948,-2.2001,-2.2004,-2.1988,-2.199,-2.2014,-2.2011,-2.2088,-2.2099,-2.2046,-2.2047,-2.2047,0,-2.1492,-2.1523,-2.1571,-2.1595,-2.1617,-2.1656,-2.1682,-2.1707,-2.1734,-2.178,-2.1804,-2.1849,-2.1885,-2.1955,-2.1985,-2.2028,-2.2032,-2.2056,-2.2039,-2.2032,-2.2033,-2.203,-2.2034,-2.2059,-2.2059,-2.206,-2.206,0,-2.154,-2.1552,-2.1589,-2.1631,-2.1662,-2.1697,-2.1731,-2.175,-2.1781,-2.1811,-2.1855,-2.1884,-2.1941,-2.1985,-2.2031,-2.2055,-2.2063,-2.2066,-2.2074,-2.2068,-2.2057,-2.2063,-2.1996,-2.2063,-2.2063,-2.2063,-2.2063,-2.2063,-2.1571,-2.1599,-2.1637,-2.1678,-2.1707,-2.1739,-2.1769,-2.1795,-2.1832,-2.188,-2.1893,-2.194,-2.1979,-2.2041,-2.2066,-2.2103,-2.21,-2.2111,-2.2114,-2.2117,-2.2117,-2.2052,-2.2112,-2.2112,-2.2112,-2.2112,-2.2112,0,-2.1619,-2.1644,-2.1682,-2.173,-2.1763,-2.1768,-2.1806,-2.1834,-2.1875,-2.191,-2.1946,-2.1998,-2.2041,-2.2076,-2.212,-2.2144,-2.2149,-2.2155,-2.2153,-2.2159,-2.2118,-2.2106,-2.215,-2.215,-2.215,-2.215,-2.215,-2.215,-2.1648,-2.1696,-2.1712,-2.1775,-2.18,-2.1846,-2.1868,-2.1898,-2.1926,-2.1984,-2.202,-2.2042,-2.2077,-2.2124,-2.2165,-2.2174,-2.219,-2.2195,-2.2205,-2.2166,-2.2161,-2.2157,-2.2147,-2.2198,-2.2198,-2.2242,-2.2243,-2.2243]}]]